User: anonymous   Login
Location: Ariel
(45.9570°N, 122.5700°W)
Time: 15:31:21
(UTC-07:00)
Language:

LilacSat-2 - Orbit

View from above orbital plane
View from above orbital plane
View from above satellite
View from above satellite

Ground track
Ground track

The orbit data is extracted from the following two-line orbital elements,

1 40908U 15049K   19115.39333080  .00000498  00000-0  31178-4 0  9991
2 40908  97.4781 116.9898 0017126  35.6899  72.0100 15.13758392198594
Epoch (UTC): 25 April 2019 09:26:23
Eccentricity: 0.0017126
inclination: 97.4781°
perigee height: 513 km
apogee height: 536 km
right ascension of ascending node: 116.9898°
argument of perigee: 35.6899°
revolutions per day: 15.13758392
mean anomaly at epoch: 72.0100°
orbit number at epoch: 19859

The dashed part of the orbit path shows where the satellite is in the earth's shadow,  

DLR